Date String (YYYY-MM-DD hh:mm:ss) UTC,Instrument flags,absolute air pressure of the measurement (hPa),sample flow rate (lpm),inlet stack bypass flow (lpm),air temperature of the measurement (°C),ambient temperature measured by the external sensor (°C),aerosol sample conditioner tube jacket temperature (°C),OPC LED temperature (°C),internal box temperature (°C),relative humidity of the measurement (%),span deviation,mass concentration of particles derived from Lorenz-Mie calculation of OPC scattering (μg/m³),mass concentration of particles derived from Lorenz-Mie calculation of OPC scattering (μg/m³),mass concentration of particles derived from Lorenz-Mie calculation of OPC scattering (μg/m³)
DateTimeUTC,F1_M11,P_M11,Q1_M11,Q2_M11,T1_M11,T2_M11,T3_M11,T4_M11,T5_M11,U1_M11,ZSPAN_M11,X2_M11,X0_M11,X1_M11
2024-05-25 03:00:00,SystemResetWarning,0823.7,4.99,000.00,031.2,030.3,000.0,039.7,032.9,009.8,0000.0,0003.56,0012.66,0002.00
2024-05-25 03:01:00,SystemResetWarning,0823.8,5.00,000.00,031.2,030.3,000.0,039.7,032.9,009.9,0000.0,0003.58,0013.10,0002.01
2024-05-25 03:02:00,SystemResetWarning,0823.7,5.01,000.00,031.2,030.3,000.0,039.7,032.9,009.8,0000.0,0003.56,0013.51,0001.99
2024-05-25 03:03:00,SystemResetWarning,0823.7,5.01,000.00,031.2,030.3,000.0,039.7,032.9,009.7,0000.0,0003.60,0012.35,0001.99
2024-05-25 03:04:00,SystemResetWarning,0823.8,4.99,000.00,031.2,030.3,000.0,039.7,032.9,009.8,0000.0,0003.63,0012.65,0001.99
2024-05-25 03:05:00,SystemResetWarning,0823.7,5.00,000.00,031.2,030.3,000.0,039.7,032.9,009.8,0000.0,0003.60,0013.48,0001.97
2024-05-25 03:06:00,SystemResetWarning,0823.7,5.02,000.00,031.2,030.3,000.0,039.7,032.9,009.7,0000.0,0003.62,0013.63,0001.96
2024-05-25 03:07:00,SystemResetWarning,0823.8,4.99,000.00,031.2,030.3,000.0,039.6,032.9,009.8,0000.0,0003.60,0013.23,0001.95
2024-05-25 03:08:00,SystemResetWarning,0823.8,5.00,000.00,031.2,030.3,000.0,039.6,032.8,009.9,0000.0,0003.61,0012.75,0001.94
2024-05-25 03:09:00,SystemResetWarning,0823.8,5.01,000.00,031.2,030.3,000.0,039.6,032.8,009.9,0000.0,0003.58,0012.53,0001.93
2024-05-25 03:10:00,SystemResetWarning,0823.8,5.00,000.00,031.2,030.3,000.0,039.6,032.8,010.0,0000.0,0003.55,0012.72,0001.93
2024-05-25 03:11:00,SystemResetWarning,0823.8,5.00,000.00,031.2,030.3,000.0,039.6,032.8,010.1,0000.0,0003.52,0012.66,0001.93
2024-05-25 03:12:00,SystemResetWarning,0823.8,5.00,000.00,031.2,030.3,000.0,039.6,032.8,010.1,0000.0,0003.53,0012.05,0001.93
2024-05-25 03:13:00,SystemResetWarning,0823.8,4.99,000.00,031.2,030.3,000.0,039.6,032.8,010.1,0000.0,0003.54,0012.02,0001.94
2024-05-25 03:14:00,SystemResetWarning,0823.8,5.00,000.00,031.2,030.3,000.0,039.6,032.8,010.2,0000.0,0003.53,0011.69,0001.96
2024-05-25 03:15:00,SystemResetWarning,0823.8,5.00,000.00,031.2,030.3,000.0,039.6,032.8,010.2,0000.0,0003.53,0011.74,0001.96
2024-05-25 03:16:00,SystemResetWarning,0823.8,5.00,000.00,031.2,030.3,000.0,039.6,032.8,010.2,0000.0,0003.57,0012.08,0001.97
2024-05-25 03:17:00,SystemResetWarning,0823.8,5.00,000.00,031.2,030.3,000.0,039.6,032.8,010.2,0000.0,0003.61,0012.69,0001.99
2024-05-25 03:18:00,SystemResetWarning,0823.8,5.00,000.00,031.2,030.3,000.0,039.6,032.8,010.1,0000.0,0003.65,0012.96,0001.99
2024-05-25 03:19:00,SystemResetWarning,0823.8,4.99,000.00,031.2,030.3,000.0,039.6,032.8,010.2,0000.0,0003.65,0012.24,0001.99
2024-05-25 03:20:00,SystemResetWarning,0823.8,5.01,000.00,031.2,030.3,000.0,039.6,032.8,010.3,0000.0,0003.63,0012.31,0001.99
2024-05-25 03:21:00,SystemResetWarning,0823.8,5.01,000.00,031.2,030.3,000.0,039.6,032.8,010.5,0000.0,0003.63,0012.40,0002.00
2024-05-25 03:22:00,SystemResetWarning,0823.8,4.98,000.00,031.2,030.3,000.0,039.6,032.8,010.6,0000.0,0003.62,0012.32,0002.00
2024-05-25 03:23:00,SystemResetWarning,0823.8,4.99,000.00,031.1,030.3,000.0,039.6,032.8,010.6,0000.0,0003.61,0012.31,0002.00
2024-05-25 03:24:00,SystemResetWarning,0823.9,5.01,000.00,031.1,030.2,000.0,039.6,032.8,010.6,0000.0,0003.55,0011.66,0002.00
2024-05-25 03:25:00,SystemResetWarning,0824.0,5.00,000.00,031.1,030.2,000.0,039.6,032.8,010.7,0000.0,0003.57,0011.74,0002.01
2024-05-25 03:26:00,SystemResetWarning,0824.0,4.99,000.00,031.1,030.2,000.0,039.6,032.8,010.7,0000.0,0003.53,0011.36,0002.01
2024-05-25 03:27:00,SystemResetWarning,0823.9,4.99,000.00,031.1,030.2,000.0,039.6,032.8,010.6,0000.0,0003.49,0010.63,0002.02
2024-05-25 03:28:00,SystemResetWarning,0824.0,4.99,000.00,031.1,030.2,000.0,039.6,032.8,010.6,0000.0,0003.44,0010.27,0002.03
2024-05-25 03:29:00,SystemResetWarning,0824.0,5.00,000.00,031.1,030.2,000.0,039.5,032.7,010.5,0000.0,0003.39,0010.30,0002.04
2024-05-25 03:30:00,SystemResetWarning,0824.0,5.01,000.00,031.1,030.2,000.0,039.5,032.7,010.5,0000.0,0003.35,0010.21,0002.04
2024-05-25 03:31:00,SystemResetWarning,0824.0,5.01,000.00,031.1,030.2,000.0,039.5,032.7,010.5,0000.0,0003.35,0009.59,0002.05
2024-05-25 03:32:00,SystemResetWarning,0823.9,5.01,000.00,031.1,030.2,000.0,039.5,032.7,010.5,0000.0,0003.34,0008.87,0002.03
2024-05-25 03:33:00,SystemResetWarning,0824.0,4.99,000.00,031.1,030.3,000.0,039.5,032.7,010.5,0000.0,0003.35,0009.21,0002.03
2024-05-25 03:34:00,SystemResetWarning,0824.0,5.00,000.00,031.1,030.3,000.0,039.5,032.7,010.5,0000.0,0003.37,0009.93,0002.02
2024-05-25 03:35:00,SystemResetWarning,0824.0,5.00,000.00,031.1,030.3,000.0,039.5,032.7,010.6,0000.0,0003.41,0010.37,0002.01
2024-05-25 03:36:00,SystemResetWarning,0824.0,5.00,000.00,031.1,030.3,000.0,039.5,032.7,010.7,0000.0,0003.40,0011.07,0002.01
2024-05-25 03:37:00,SystemResetWarning,0824.0,5.00,000.00,031.1,030.3,000.0,039.5,032.8,010.7,0000.0,0003.42,0011.54,0002.01
2024-05-25 03:38:00,SystemResetWarning,0824.1,5.00,000.00,031.2,030.3,000.0,039.5,032.8,010.7,0000.0,0003.45,0011.55,0002.03
2024-05-25 03:39:00,SystemResetWarning,0824.1,5.00,000.00,031.2,030.3,000.0,039.5,032.8,010.9,0000.0,0003.53,0012.33,0002.03
2024-05-25 03:40:00,SystemResetWarning,0824.2,5.00,000.00,031.2,030.3,000.0,039.5,032.8,010.9,0000.0,0003.59,0012.25,0002.03
2024-05-25 03:41:00,SystemResetWarning,0824.2,5.00,000.00,031.2,030.3,000.0,039.5,032.8,011.0,0000.0,0003.62,0012.84,0002.05
2024-05-25 03:42:00,SystemResetWarning,0824.1,5.00,000.00,031.2,030.3,000.0,039.5,032.8,011.0,0000.0,0003.65,0013.23,0002.07
2024-05-25 03:43:00,SystemResetWarning,0824.1,5.00,000.00,031.2,030.3,000.0,039.5,032.8,011.1,0000.0,0003.71,0013.34,0002.09
2024-05-25 03:44:00,SystemResetWarning,0824.1,5.00,000.00,031.2,030.3,000.0,039.5,032.8,011.1,0000.0,0003.76,0013.18,0002.10
2024-05-25 03:45:00,SystemResetWarning,0824.1,5.01,000.00,031.2,030.3,000.0,039.5,032.8,011.0,0000.0,0003.74,0012.63,0002.12
2024-05-25 03:46:00,SystemResetWarning,0824.1,5.00,000.00,031.2,030.3,000.0,039.5,032.8,011.1,0000.0,0003.76,0012.55,0002.15
2024-05-25 03:47:00,SystemResetWarning,0824.1,5.00,000.00,031.2,030.3,000.0,039.5,032.8,011.1,0000.0,0003.78,0011.88,0002.16
2024-05-25 03:48:00,SystemResetWarning,0824.2,5.00,000.00,031.2,030.3,000.0,039.5,032.8,011.1,0000.0,0003.82,0011.60,0002.18
2024-05-25 03:49:00,SystemResetWarning,0824.2,5.01,000.00,031.2,030.3,000.0,039.5,032.8,011.1,0000.0,0003.83,0011.39,0002.20
2024-05-25 03:50:00,SystemResetWarning,0824.2,5.00,000.00,031.2,030.3,000.0,039.5,032.8,011.0,0000.0,0003.78,0010.49,0002.21
2024-05-25 03:51:00,SystemResetWarning,0824.1,5.00,000.00,031.2,030.3,000.0,039.5,032.8,011.0,0000.0,0003.76,0010.04,0002.22
2024-05-25 03:52:00,SystemResetWarning,0824.1,5.00,000.00,031.2,030.3,000.0,039.5,032.7,011.0,0000.0,0003.78,0009.52,0002.23
2024-05-25 03:53:00,SystemResetWarning,0824.1,5.00,000.00,031.2,030.3,000.0,039.5,032.8,011.0,0000.0,0003.78,0009.66,0002.23
2024-05-25 03:54:00,SystemResetWarning,0824.1,5.00,000.00,031.2,030.3,000.0,039.5,032.8,010.9,0000.0,0003.77,0009.85,0002.22
2024-05-25 03:55:00,SystemResetWarning,0824.2,5.00,000.00,031.2,030.3,000.0,039.5,032.8,010.8,0000.0,0003.72,0009.69,0002.23
2024-05-25 03:56:00,SystemResetWarning,0824.1,5.00,000.00,031.2,030.3,000.0,039.5,032.8,010.8,0000.0,0003.72,0009.66,0002.24
2024-05-25 03:57:00,SystemResetWarning,0824.2,5.00,000.00,031.2,030.3,000.0,039.5,032.8,010.8,0000.0,0003.70,0009.42,0002.24
2024-05-25 03:58:00,SystemResetWarning,0824.3,5.00,000.00,031.2,030.3,000.0,039.5,032.8,010.8,0000.0,0003.72,0010.04,0002.24
2024-05-25 03:59:00,SystemResetWarning,0824.3,5.00,000.00,031.2,030.3,000.0,039.5,032.8,011.0,0000.0,0003.71,0010.47,0002.22
